Regional Weather Roundup
Issued by NWS

Home | Current Version | Previous Version | Graphics & Text | Print | Product List | Glossary On
Versions: 1 2 3 4 5 6 7 8 9 10 11 12 13 14 15 16 17 18 19 20 21 22 23 24 25 26 27 28 29 30 31 32 33 34 35 36 37 38 39 40 41 42 43 44 45 46 47 48 49 50
000
ASUS43 KOAX 200502
RWRNE

WEATHER ROUNDUP FOR NEBRASKA
NATIONAL WEATHER SERVICE OMAHA NE
1200 AM CDT SUN APR 20 2014

NOTES: SATELLITE DATA IS BEING USED TO AUGMENT CLOUD COVER ABOVE
       12000 FEET.
       "FAIR" INDICATES FEW OR NO CLOUDS BELOW 12,000 FEET WITH NO
       SIGNIFICANT WEATHER AND/OR OBSTRUCTIONS TO VISIBILITY.

  * THESE STATIONS DO NOT REPORT WEATHER SUCH AS RAIN...SNOW OR FOG.

NEZ001>004-019>022-054>056-200600-
NEBRASKA PANHANDLE

CITY           SKY/WX    TMP DP  RH WIND       PRES   REMARKS
SCOTTSBLUFF    PTCLDY    49  34  56 SE10      30.01F
ALLIANCE       MOCLDY    41  33  73 S7        30.02F
CHADRON        CLEAR     43  35  73 CALM      30.00S
KIMBALL        CLEAR     44  34  68 SW6       30.05F
SIDNEY         CLEAR     44  33  65 S5        30.05F
$$

NEZ057>060-069>072-079>082-200600-
SOUTHWEST NEBRASKA

CITY           SKY/WX    TMP DP  RH WIND       PRES   REMARKS
NORTH PLATTE   PTCLDY    53  42  66 NE8       30.00F
IMPERIAL       PTCLDY    48  41  76 CALM      30.02R
LEXINGTON      LGT RAIN  54  49  83 CALM      29.99R
MCCOOK         CLOUDY    57  51  80 NE6       30.00F
OGALLALA       MOCLDY    50  40  68 CALM      30.01F
$$

NEZ005>010-023>029-035>040-094-200600-
NORTH CENTRAL NEBRASKA

CITY           SKY/WX    TMP DP  RH WIND       PRES   REMARKS
VALENTINE      CLEAR     43  19  38 NW5       30.03S
AINSWORTH      MOCLDY    50  28  43 CALM      30.03S
BROKEN BOW     PTCLDY    50  41  71 N7        30.00S
O`NEILL        MOCLDY    56  31  38 NE7       30.01F
ORD            PTCLDY    56  41  57 CALM      29.98F
THEDFORD       PTCLDY    52  37  56 CALM      30.02S
$$

NEZ041-046>049-061>064-073>077-083>087-200600-
SOUTH CENTRAL NEBRASKA

CITY           SKY/WX    TMP DP  RH WIND       PRES   REMARKS
GRAND ISLAND   PTCLDY    60  51  72 SE3       29.95S
HASTINGS       PTCLDY    64  47  53 S6        29.95S
HEBRON         MOCLDY    66  49  54 S14       29.97S
HOLDREGE       LGT RAIN  58  49  74 N8        29.97S
KEARNEY *      PTCLDY    59  48  67 N7        29.96F
YORK           CLEAR     64  48  55 S14       29.96F
$$

NEZ011>018-030>034-042>045-200600-
NORTHEAST NEBRASKA

CITY           SKY/WX    TMP DP  RH WIND       PRES   REMARKS
NORFOLK        MOCLDY    63  45  51 NE7       29.98F
ALBION         PTCLDY    60  46  58 NE8       29.98F
BLAIR          PTCLDY    68  43  40 S16G22    29.98F
COLUMBUS *     MOCLDY    66  46  48 S9        29.97F
FREMONT        CLOUDY    67  43  41 SE12G17   29.98S
TEKAMAH        CLOUDY    70  44  39 S15       29.98F
$$

NEZ050>053-065>068-078-088>093-200600-
SOUTHEAST NEBRASKA

CITY           SKY/WX    TMP DP  RH WIND       PRES   REMARKS
LINCOLN        PTCLDY    68  44  42 S18       29.98S
OMAHA EPPLEY   MOCLDY    70  44  39 S16       30.00R
BEATRICE       MOCLDY    67  44  44 S13       30.00S
FALLS CITY     MOCLDY    60  46  59 SE10      30.05R
$$

NEZ044-045-051>053-067-200600-
OMAHA AREA

CITY           SKY/WX    TMP DP  RH WIND       PRES   REMARKS
OMAHA EPPLEY   MOCLDY    70  44  39 S16       30.00R
BLAIR          PTCLDY    68  43  40 S16G22    29.98F
FREMONT        CLOUDY    67  43  41 SE12G17   29.98S
OFFUTT AFB     PTCLDY    66  45  46 SE10      30.00S
$$



USA.gov is the U.S. government's official web portal to all federal, state and local government web resources and services.